Change the Weather History Date:

Saturday, April 27, 2013

  Actual Average Record
Temperature  
Mean Temperature 72 °F -  
Max Temperature 77 °F - - ()
Min Temperature 66 °F - - ()
Cooling Degree Days 6    
Growing Degree Days 22 (Base 50)    
Moisture  
Dew Point 67 °F    
Average Humidity 93    
Maximum Humidity 100    
Minimum Humidity 71    
Precipitation  
Precipitation 0.00 in - - ()
Sea Level Pressure  
Sea Level Pressure 30.14 in    
Wind  
Wind Speed 4 mph (ESE)    
Max Wind Speed 10 mph    
Max Gust Speed -    
Visibility 7 miles    
Events      
T = Trace of Precipitation, MM = Missing Value Source: NWS Daily Summary

Daily Weather History Graph

Daily Weather History Graph

Search for Another Location

Airport or City:

Trip Planner

Search our weather history database for the weather conditions in past years. The results will help you decide how hot, cold, wet, or windy it might be!

Date:

Astronomy

Apr. 27, 2013 Rise Set
Actual Time 6:19 AM CDT 7:31 PM CDT
Civil Twilight 5:54 AM CDT 7:56 PM CDT
Nautical Twilight 5:24 AM CDT 8:26 PM CDT
Astronomical Twilight 4:53 AM CDT 8:57 PM CDT
Moon 9:52 PM CDT (4/27) 7:44 AM CDT (4/27)
Length of Visible Light 14h 02m
Length of Day
13h 12m
Waning Gibbous, 95% of the Moon is Illuminated
Apr 27
Waning Gibbous
May 2
Last Quarter
May 9
New
May 17
First Quarter
May 24
Full

Hourly Weather History & Observations

Time (CDT) Temp. Dew Point Humidity Pressure Visibility Wind Dir Wind Speed Gust Speed Precip Events Conditions
12:51 AM 69.1 °F 68.0 °F 96% 30.19 in 10.0 mi SE 4.6 mph - N/A   Clear
1:51 AM 68.0 °F 66.9 °F 96% 30.17 in 10.0 mi SE 4.6 mph - N/A   Clear
2:51 AM 68.0 °F 68.0 °F 100% 30.14 in 10.0 mi SE 4.6 mph - N/A   Clear
3:27 AM 66.2 °F 66.2 °F 100% 30.14 in 8.0 mi ESE 3.5 mph - N/A   Scattered Clouds
3:36 AM 66.2 °F 66.2 °F 100% 30.14 in 3.0 mi ESE 3.5 mph - N/A   Mostly Cloudy
3:42 AM 66.2 °F 66.2 °F 100% 30.13 in 1.8 mi ESE 3.5 mph - N/A   Mostly Cloudy
3:51 AM 66.0 °F 66.0 °F 100% 30.13 in 1.2 mi Calm Calm - N/A   Overcast
4:21 AM 66.2 °F 66.2 °F 100% 30.13 in 2.5 mi Calm Calm - N/A   Overcast
4:30 AM 66.2 °F 66.2 °F 100% 30.13 in 5.0 mi Calm Calm - N/A   Mostly Cloudy
4:41 AM 66.2 °F 66.2 °F 100% 30.13 in 5.0 mi ESE 3.5 mph - N/A   Overcast
4:51 AM 66.9 °F 66.9 °F 100% 30.13 in 7.0 mi ESE 3.5 mph - N/A   Mostly Cloudy
5:06 AM 66.2 °F 66.2 °F 100% 30.13 in 1.8 mi SE 3.5 mph - N/A   Overcast
5:24 AM 66.2 °F 64.4 °F 94% 30.13 in 2.0 mi SE 4.6 mph - N/A   Overcast
5:37 AM 66.2 °F 66.2 °F 100% 30.13 in 1.8 mi SE 5.8 mph - N/A   Overcast
5:46 AM 66.2 °F 66.2 °F 100% 30.13 in 2.5 mi SE 5.8 mph - N/A   Overcast
5:51 AM 66.9 °F 66.9 °F 100% 30.13 in 4.0 mi SE 5.8 mph - N/A   Overcast
6:16 AM 68.0 °F 68.0 °F 100% 30.13 in 10.0 mi ESE 4.6 mph - N/A   Overcast
6:46 AM 66.2 °F 66.2 °F 100% 30.15 in 2.5 mi East 3.5 mph - N/A   Overcast
6:49 AM 66.2 °F 66.2 °F 100% 30.15 in 1.2 mi Calm Calm - N/A   Overcast
6:51 AM 66.9 °F 66.9 °F 100% 30.15 in 1.0 mi Calm Calm - N/A   Overcast
6:58 AM 66.2 °F 66.2 °F 100% 30.15 in 0.8 mi Calm Calm - N/A   Overcast
7:28 AM 66.2 °F 66.2 °F 100% 30.17 in 1.0 mi NE 3.5 mph - N/A   Mist
7:42 AM 66.2 °F 66.2 °F 100% 30.17 in 3.0 mi ENE 4.6 mph - N/A   Overcast
7:51 AM 68.0 °F 68.0 °F 100% 30.18 in 4.0 mi ENE 4.6 mph - N/A   Overcast
8:10 AM 69.8 °F 69.8 °F 100% 30.18 in 10.0 mi ENE 4.6 mph - N/A   Overcast
8:29 AM 69.8 °F 69.8 °F 100% 30.19 in 10.0 mi ENE 5.8 mph - N/A   Partly Cloudy
8:51 AM 70.0 °F 69.1 °F 97% 30.19 in 10.0 mi East 8.1 mph - N/A   Clear
9:08 AM 71.6 °F 69.8 °F 94% 30.19 in 10.0 mi East 6.9 mph - N/A   Partly Cloudy
9:51 AM 73.9 °F 69.1 °F 85% 30.20 in 10.0 mi ESE 8.1 mph - N/A   Partly Cloudy
10:51 AM 75.0 °F 68.0 °F 79% 30.18 in 10.0 mi SE 10.4 mph - N/A   Clear
11:51 AM 77.0 °F 69.1 °F 76% 30.18 in 10.0 mi ESE 9.2 mph - N/A   Partly Cloudy
12:08 PM 75.2 °F 68.0 °F 78% 30.18 in 10.0 mi ESE 10.4 mph - N/A   Mostly Cloudy
12:51 PM 77.0 °F 69.1 °F 76% 30.17 in 10.0 mi South 10.4 mph - N/A   Scattered Clouds
1:51 PM 77.0 °F 69.1 °F 76% 30.16 in 10.0 mi South 6.9 mph - N/A   Clear
2:51 PM 77.0 °F 68.0 °F 74% 30.14 in 10.0 mi South 5.8 mph - N/A   Clear
3:51 PM 75.9 °F 68.0 °F 76% 30.12 in 10.0 mi SSE 6.9 mph - N/A   Clear
4:51 PM 75.9 °F 66.9 °F 74% 30.10 in 10.0 mi SSE 8.1 mph - N/A   Clear
5:51 PM 77.0 °F 66.9 °F 71% 30.09 in 10.0 mi South 5.8 mph - N/A   Clear
6:51 PM 75.0 °F 68.0 °F 79% 30.09 in 10.0 mi SE 4.6 mph - N/A   Clear
7:51 PM 72.0 °F 69.1 °F 91% 30.07 in 10.0 mi ESE 3.5 mph - N/A   Clear
8:51 PM 71.1 °F 68.0 °F 90% 30.07 in 10.0 mi SE 6.9 mph - N/A   Clear
9:51 PM 71.1 °F 69.1 °F 93% 30.07 in 10.0 mi SE 5.8 mph - N/A   Clear
10:51 PM 70.0 °F 68.0 °F 93% 30.09 in 10.0 mi Calm Calm - N/A   Clear
11:51 PM 69.1 °F 68.0 °F 96% 30.09 in 10.0 mi Calm Calm - N/A   Clear